TimeAKST,TemperatureF,Dew PointF,Humidity,Sea Level PressureIn,VisibilityMPH,Wind Direction,Wind SpeedMPH,Gust SpeedMPH,PrecipitationIn,Events,Conditions,WindDirDegrees,DateUTC
12:24 AM,42.8,39.2,87,29.67,5.0,ESE,13.8,19.6,0.05,Rain,Light Rain,120,2013-01-23 09:24:00
12:53 AM,42.1,39.0,89,29.67,5.0,SE,13.8,-,0.05,Rain,Light Rain,130,2013-01-23 09:53:00
1:10 AM,41.0,39.2,93,29.67,2.5,ESE,10.4,-,0.02,Rain,Light Rain,120,2013-01-23 10:10:00
1:18 AM,42.8,39.2,87,29.67,3.0,ESE,11.5,17.3,0.04,Rain,Rain,120,2013-01-23 10:18:00
1:53 AM,41.0,39.0,93,29.68,5.0,ESE,12.7,21.9,0.07,Rain,Light Rain,120,2013-01-23 10:53:00
2:31 AM,41.0,39.2,93,29.67,2.5,ESE,10.4,-,0.04,Rain,Light Rain,120,2013-01-23 11:31:00
2:40 AM,41.0,39.2,93,29.67,6.0,ESE,10.4,-,0.05,Rain,Light Rain,120,2013-01-23 11:40:00
3:53 AM,41.0,39.9,96,29.68,7.0,SE,9.2,-,0.02,Rain,Light Rain,140,2013-01-23 12:53:00
4:53 AM,43.0,42.1,97,29.68,10.0,SE,8.1,-,0.00,,Overcast,130,2013-01-23 13:53:00
5:53 AM,42.1,39.9,92,29.69,10.0,ESE,8.1,-,N/A,,Overcast,120,2013-01-23 14:53:00
6:53 AM,41.0,39.9,96,29.70,10.0,Calm,Calm,-,0.02,,Overcast,0,2013-01-23 15:53:00
7:53 AM,42.1,39.9,92,29.70,10.0,SE,4.6,-,N/A,,Overcast,130,2013-01-23 16:53:00
7:59 AM,42.8,39.2,87,29.69,10.0,SE,3.5,-,N/A,,Mostly Cloudy,130,2013-01-23 16:59:00
8:10 AM,42.8,39.2,87,29.70,10.0,SE,4.6,-,N/A,,Overcast,130,2013-01-23 17:10:00
8:37 AM,42.8,39.2,87,29.70,10.0,SE,5.8,-,N/A,,Overcast,130,2013-01-23 17:37:00
8:53 AM,42.1,39.9,92,29.70,10.0,East,4.6,-,0.00,Rain,Light Rain,100,2013-01-23 17:53:00
9:00 AM,42.8,41.0,93,29.70,10.0,ESE,5.8,-,0.00,Rain,Light Rain,120,2013-01-23 18:00:00
9:53 AM,42.1,41.0,96,29.72,10.0,SE,5.8,-,0.00,,Mostly Cloudy,130,2013-01-23 18:53:00
10:53 AM,43.0,41.0,93,29.72,10.0,SE,5.8,-,N/A,,Mostly Cloudy,130,2013-01-23 19:53:00
11:00 AM,42.8,41.0,93,29.71,10.0,SE,5.8,-,N/A,,Overcast,130,2013-01-23 20:00:00
11:53 AM,44.1,42.1,93,29.71,10.0,SE,5.8,-,N/A,,Overcast,140,2013-01-23 20:53:00
12:13 PM,44.6,41.0,87,29.71,10.0,SE,8.1,-,N/A,,Mostly Cloudy,140,2013-01-23 21:13:00
12:53 PM,44.1,39.0,82,29.71,10.0,SE,8.1,-,N/A,,Mostly Cloudy,140,2013-01-23 21:53:00
1:53 PM,44.1,39.9,85,29.71,10.0,SSE,6.9,-,N/A,,Mostly Cloudy,150,2013-01-23 22:53:00
2:53 PM,43.0,39.0,86,29.72,10.0,SE,6.9,-,N/A,,Overcast,140,2013-01-23 23:53:00
3:53 PM,43.0,37.9,82,29.73,10.0,SSE,5.8,-,0.00,Rain,Light Rain,150,2013-01-24 00:53:00
4:53 PM,42.1,37.0,82,29.73,10.0,South,5.8,-,0.02,Rain,Light Rain,170,2013-01-24 01:53:00
5:24 PM,42.8,37.4,81,29.73,10.0,South,6.9,-,0.01,Rain,Light Rain,190,2013-01-24 02:24:00
5:44 PM,41.0,37.4,87,29.73,10.0,SSE,4.6,-,0.01,Rain,Light Rain,160,2013-01-24 02:44:00
5:53 PM,41.0,37.0,86,29.74,10.0,South,4.6,-,0.01,Rain,Light Rain,170,2013-01-24 02:53:00
6:07 PM,42.8,37.4,81,29.74,10.0,SSE,4.6,-,0.01,Rain,Light Rain,160,2013-01-24 03:07:00
6:53 PM,41.0,37.9,89,29.75,10.0,SE,8.1,-,0.01,Rain,Light Rain,130,2013-01-24 03:53:00
7:19 PM,42.8,37.4,81,29.75,10.0,Variable,5.8,-,0.00,Rain,Light Rain,0,2013-01-24 04:19:00
7:37 PM,42.8,37.4,81,29.76,10.0,SSE,5.8,-,0.00,,Overcast,150,2013-01-24 04:37:00
7:53 PM,43.0,37.9,82,29.77,10.0,SSE,6.9,-,0.00,,Overcast,160,2013-01-24 04:53:00
8:53 PM,43.0,37.9,82,29.78,10.0,SSE,3.5,-,N/A,,Overcast,160,2013-01-24 05:53:00
9:11 PM,42.8,37.4,81,29.78,10.0,SSE,4.6,-,N/A,,Overcast,160,2013-01-24 06:11:00
9:44 PM,42.8,39.2,87,29.79,10.0,SE,3.5,-,N/A,,Overcast,140,2013-01-24 06:44:00
9:53 PM,43.0,37.9,82,29.80,10.0,Variable,3.5,-,N/A,,Overcast,0,2013-01-24 06:53:00
10:53 PM,43.0,37.9,82,29.81,10.0,SSE,4.6,-,N/A,,Overcast,150,2013-01-24 07:53:00
11:53 PM,42.1,37.9,85,29.82,10.0,SE,5.8,-,N/A,,Overcast,140,2013-01-24 08:53:00